Airfield :
LOGIN :

Register | Disclaimer

   EN    FR    IT 

 










Legend :    VFR   Marginal VFR   IFR   Intensive IFR   Very Intensive IFR
Visi :
Ceiling :
>= 8 km
>= 3000ft
5 to 8 km
1000 to 3000 ft
1500m to 5 km
500 to 1000 ft
800 to 1500m
200 to 500 ft
< 800m
< 200 ft
Symbols :   Thunderstorms  Fog  Heavy snow  Heavy precipitations  Wind > 20 kt
SIGMETs :     Misc.  Thunderstorms  Icing  Turbulence  Mountain Waves  Volcanic Ashes






- Airport Elevation : 13 ft
- IATA code : CAG


LIEE - Cagliari Elmas

CURRENT METAR :
  • 180450Z 16011KT 9999 FEW045 23/19 Q1016

EXPIRED METARs :
  • 180420Z 17009KT 9999 FEW040 23/19 Q1016
  • 180350Z 18008KT 9999 FEW035 23/19 Q1016
  • 180320Z 17009KT 9999 FEW030 23/19 Q1015
  • 180250Z 18008KT CAVOK 23/19 Q1015
  • 180220Z 17007KT CAVOK 23/19 Q1015

TAF TAF LIEE
Valid from the 18 at 00:00 until the 19 at 00:00 UTC


172300Z 1800/1824 VRB05KT 9999 FEW040
BECMG 1806/1808 15015KT
BECMG 1819/1821 VRB05KT



MET'MAP, your aeronautical weather chart ! - Copyright ORBIFLY December 2007 - Disclaimer

ORBIFLY MET'MAP TEAM :

Programming & Development : Alexandra Zaïnal
Concept & original design : Baudouin d'Aumeries
Assistance for programming : Marc-Olivier Méhu
Technical & hardware support : Manuel Goepfert

Contact : metmap@orbifly.com




SOURCES & CREDITS :

   NOAA